Regional Weather Roundup
Issued by NWS

Home | Current Version | Previous Version | Graphics & Text | Print | Product List | Glossary On
Versions: 1 2 3 4 5 6 7 8 9 10 11 12 13 14 15 16 17 18 19 20 21 22 23 24 25 26 27 28 29 30 31 32 33 34 35 36 37 38 39 40 41 42 43 44 45 46 47 48 49 50
000
ASUS43 KLMK 300010
RWRKY
KENTUCKY REGIONAL WEATHER ROUNDUP
NATIONAL WEATHER SERVICE LOUISVILLE KY
800 PM EDT SUN MAR 29 2015

NOTE "FAIR" INDICATES FEW OR NO CLOUDS BELOW 12,000 FEET
WITH NO SIGNIFICANT WEATHER AND/OR OBSTRUCTIONS TO VISIBILITY.

KYZ001>023-026-027-061>063-070>075-300100-
WESTERN AND SOUTH CENTRAL KENTUCKY

CITY           SKY/WX    TMP DP  RH WIND       PRES   REMARKS
PADUCAH        PTCLDY    56  42  59 W9        30.02R
HENDERSON      CLOUDY    55  36  47 SW7       29.98F
OWENSBORO      CLOUDY    58  40  51 W9        30.01R
HOPKINSVILLE   CLEAR     60  39  44 SW15      30.00R
BOWLING GREEN  CLOUDY    59  33  37 S13G23    30.01F
GLASGOW        PTCLDY    58  31  35 S15G23    30.01S
$$

KYZ024-025-028>034-038-045-046-053-300100-
NORTH CENTRAL KENTUCKY

CITY           SKY/WX    TMP DP  RH WIND       PRES   REMARKS
LOUISVILLE/SDF CLOUDY    59  24  26 SW8       30.01R
LOUISVILLE/LOU CLOUDY    58  23  26 SW9       30.01R
FORT KNOX      CLOUDY    56  28  33 SW9       29.99R
$$

KYZ035>037-039>044-047>052-055>060-089>105-300100-
NORTHEAST KENTUCKY

CITY           SKY/WX    TMP DP  RH WIND       PRES   REMARKS
LEXINGTON      CLOUDY    56  17  21 SW14      29.99R
COVINGTON      CLOUDY    52  15  23 W6        30.00R
FRANKFORT      CLOUDY    56  16  20 SW15G22   29.98R
$$

KYZ054-064>069-076>088-106>120-300100-
SOUTHEAST KENTUCKY

CITY           SKY/WX    TMP DP  RH WIND       PRES   REMARKS
JACKSON        PTCLDY    52   8  17 VRB5      30.02F
LONDON         CLEAR     55  11  17 S12       30.05F
SOMERSET       CLOUDY    55  18  22 S15G21    30.05S
MIDDLESBORO    CLEAR     54  15  21 S6        30.10F
MONTICELLO     PTCLDY    57  20  24 S13       30.07S
$$




USA.gov is the U.S. government's official web portal to all federal, state and local government web resources and services.